Weather History for Cut Bank, MT

Change the Weather History Date:

Thursday, December 27, 2012

  Actual Average Record
Temperature  
Mean Temperature -2 °F 21 °F  
Max Temperature 13 °F 32 °F 61 °F (1999)
Min Temperature -17 °F 11 °F -25 °F (1968)
Degree Days  
Heating Degree Days 67 44  
Month to date heating degree days 1213 1154  
Since 1 July heating degree days 3353 3417  
Cooling Degree Days 0 0  
Month to date cooling degree days 0 0  
Year to date cooling degree days 210 162  
Moisture  
Dew Point -5 °F    
Average Humidity 80    
Maximum Humidity 87    
Minimum Humidity 73    
Precipitation  
Precipitation 0.00 in 0.01 in 0.34 in (1928)
Month to date precipitation 0.18 0.19  
Year to date precipitation 9.03 10.87  
Snow  
Snow 0.00 in - - ()
Snow Depth -    
Sea Level Pressure  
Sea Level Pressure 30.06 in    
Wind  
Wind Speed 2 mph (North)    
Max Wind Speed 7 mph    
Max Gust Speed 8 mph    
Visibility 10 miles    
Events      
T = Trace of Precipitation, MM = Missing Value Source: NWS Daily Summary

Daily Weather History Graph

Daily Weather History Graph

Search for Another Location

Airport:

Trip Planner

Search our weather history database for the weather conditions in past years. The results will help you decide how hot, cold, wet, or windy it might be!

Date:

Astronomy

Dec. 27, 2012 Rise Set
Actual Time 8:21 AM MST 4:40 PM MST
Civil Twilight 7:44 AM MST 5:17 PM MST
Nautical Twilight 7:04 AM MST 5:57 PM MST
Astronomical Twilight 6:26 AM MST 6:35 PM MST
Moon 4:30 PM MST (12/27) 7:32 AM MST (12/27)
Length of Visible Light 9h 32m
Length of Day
8h 18m
Full, 100% of the Moon is Illuminated
Dec 27
Full
Dec 28
Full
Jan 4
Last Quarter
Jan 11
New
Jan 18
First Quarter

Hourly Weather History & Observations

Time (MST) Temp. Windchill Dew Point Humidity Pressure Visibility Wind Dir Wind Speed Gust Speed Precip Events Conditions
12:56 AM -13.0 °F - -17.0 °F 82% 30.09 in 10.0 mi Calm Calm - N/A   Clear
1:56 AM -15.0 °F - -20.0 °F 78% 30.10 in 10.0 mi Calm Calm - N/A   Clear
2:56 AM -15.0 °F -27.4 °F -20.0 °F 78% 30.10 in 10.0 mi North 4.6 mph - N/A   Clear
3:56 AM -15.0 °F -27.4 °F -20.0 °F 78% 30.10 in 10.0 mi NNE 4.6 mph - N/A   Clear
4:56 AM -14.1 °F - -18.9 °F 79% 30.09 in 10.0 mi Calm Calm - N/A   Clear
5:56 AM -14.1 °F -23.9 °F -18.9 °F 79% 30.09 in 10.0 mi NNE 3.5 mph - N/A   Clear
6:56 AM -11.9 °F - -17.0 °F 78% 30.11 in 10.0 mi Calm Calm - N/A   Partly Cloudy
7:56 AM -7.1 °F - -11.0 °F 83% 30.08 in 10.0 mi Calm Calm - N/A   Overcast
8:56 AM -7.1 °F -18.1 °F -11.9 °F 79% 30.10 in 10.0 mi North 4.6 mph - N/A   Overcast
9:56 AM -2.9 °F -11.2 °F -8.0 °F 79% 30.11 in 10.0 mi North 3.5 mph - N/A   Overcast
10:56 AM 3.0 °F - -2.0 °F 80% 30.09 in 10.0 mi Calm Calm - N/A   Scattered Clouds
11:56 AM 8.6 °F 2.0 °F 1.4 °F 73% 29.80 in 10.0 mi NNE 3.5 mph - N/A   Scattered Clouds
12:56 PM 6.8 °F -2.0 °F -0.4 °F 72% 29.79 in 10.0 mi NNE 4.6 mph - N/A   Partly Cloudy
1:56 PM 10.9 °F - 3.9 °F 73% 30.05 in 10.0 mi Calm Calm - N/A   Clear
2:56 PM 9.0 °F - 3.0 °F 77% 30.05 in 10.0 mi Calm Calm - N/A   Clear
3:56 PM 10.0 °F - 1.9 °F 70% 30.06 in 10.0 mi Calm Calm - N/A   Clear
4:56 PM 7.0 °F -3.3 °F 1.0 °F 77% 30.08 in 10.0 mi NNE 5.8 mph - N/A   Clear
5:56 PM 6.1 °F -7.8 °F 1.9 °F 83% 30.09 in 10.0 mi NNW 9.2 mph - N/A   Clear
6:56 PM 3.0 °F -9.3 °F -0.9 °F 84% 30.10 in 10.0 mi NNW 6.9 mph - N/A   Clear
7:56 PM 10.9 °F - 7.0 °F 84% 30.06 in 10.0 mi Calm Calm - N/A   Clear
8:56 PM 3.9 °F -8.2 °F 1.0 °F 88% 30.10 in 10.0 mi North 6.9 mph - N/A   Partly Cloudy
9:56 PM 10.0 °F 1.8 °F 5.0 °F 80% 30.06 in 10.0 mi North 4.6 mph - N/A   Mostly Cloudy
10:56 PM 10.9 °F 4.7 °F 7.0 °F 84% 30.06 in 10.0 mi NNW 3.5 mph - N/A   Overcast
11:56 PM 12.9 °F 2.6 °F 8.1 °F 81% 30.04 in 10.0 mi West 6.9 mph - N/A   Clear